Regional Weather Roundup
Issued by NWS New Orleans/Baton Rouge, LA

Home | Current Version | Previous Version | Graphics & Text | Print | Product List | Glossary On
Versions: 1 2 3 4 5 6 7 8 9 10 11 12 13 14 15 16 17 18 19 20 21 22 23 24 25 26 27 28 29 30 31 32 33 34 35 36 37 38 39 40 41 42 43 44 45 46 47 48 49 50
735
ASUS44 KLIX 261307
RWRLIX
NEW ORLEANS REGIONAL WEATHER ROUNDUP
NATIONAL WEATHER SERVICE NEW ORLEANS LA
800 AM CDT THU MAR 26 2015

NOTE: "FAIR" INDICATES FEW OR NO CLOUDS BELOW 12,000 FEET WITH NO
      SIGNIFICANT WEATHER AND/OR OBSTRUCTIONS TO VISIBILITY.
      SKY/WX - SKY CONDITION AND SIGNIFICANT WEATHER.
      TMP - AIR TEMPERATURE.     DP    - DEWPOINT TEMPERATURE.
      RH  - RELATIVE HUMIDITY.   PRES  - PRESSURE.
      HI  - HEAT INDEX.          WCI   - WIND CHILL INDEX.

*  THESE STATIONS ARE NOT NWS OR FAA STATIONS AND ARE NOT UNDER
   NWS QUALITY CONTROL.

LAZ038-040-048-061>063-065>067-069-261400-
SOUTHEAST LOUISIANA

CITY           SKY/WX    TMP DP  RH WIND       PRES   REMARKS
N.O. AUDUBON     N/A     70  65  84 MISG        N/A
N.O. INTL ARPT CLOUDY    69  65  86 E3        29.91R
N.O. LAKEFRONT CLOUDY    71  66  84 E7        29.92R
SLIDELL        CLOUDY    65  64  97 CALM      29.93R
BATON ROUGE    CLOUDY    64  62  93 CALM      29.93R FOG
BOOTHVILLE     LGT RAIN  66  66 100 E3        29.93S FOG
BELLE CHASSE   CLOUDY    69  66  90 NE3       29.91R THUNDER FOG
BOGALUSA*        N/A     62  59  90 N5        29.95S FOG
GALLIANO*      LGT RAIN  71  68  89 SW10      29.91F
NEW ROADS*     CLOUDY    62  60  93 N3        29.95R
GONZALES*      CLOUDY    65  65 100 CALM      29.92R
HAMMOND*       CLOUDY    64  61  88 CALM      29.94S
HOUMA*         PTSUNNY   70  70 100 CALM      29.92R FOG
PORT FOURCHON* PTSUNNY   70  66  88 SW9       29.95F FOG

$$

MSZ070-080>082-261400-
SOUTHERN MISSISSIPPI

CITY           SKY/WX    TMP DP  RH WIND       PRES   REMARKS
MCCOMB         CLOUDY    63  61  93 NW5       29.95R FOG
GULFPORT       CLOUDY    67  64  90 CALM      29.93R
BILOXI         CLOUDY    66  65  99 NE5       29.94R
PASCAGOULA     CLOUDY    64  63  96 CALM      29.94S
STENNIS ARPT*  PTSUNNY   64  61  88 CALM      29.93S

$$

COASTAL OBSERVATIONS
LAKE AND NEARSHORE STATIONS

STATION/POSITION TIME  TEMP    WIND        PRES    WAVE
                       AIR SEA DIR/SP/G            HT/PER
                 (UTC) (F)     (DEG/KT/KT) (MB)    (FT/S)
PASCAGOULA       1200   69      70/  7/ 10 1013.0
WAVELAND YACHT   1200          100/  3/  4   N/A
GRAND ISLE       1200   71 71  180/  4/  5 1012.3
SOUTHWEST PASS   1200   65 51   50/  3/  3 1012.9
NEW CANAL        1200           70/  3/  4   N/A
SHELL BEACH      1200   70 72  100/  6/  8 1012.8

OFFSHORE STATIONS

STATION/POSITION TIME  TEMP    WIND        PRES    WAVE
                       AIR SEA DIR/SP/G            HT/PER
                 (UTC) (F)     (DEG/KT/KT) (MB)    (FT/S)
64 S DAUPHIN ISL 1250   73 72  190/  6/  6 1013.3    3/ 5

$$




USA.gov is the U.S. government's official web portal to all federal, state and local government web resources and services.